Regional Weather Roundup
Issued by NWS Mobile, AL

Home | Current Version | Previous Version | Text Only | Print | Product List | Glossary On
Versions: 1 2 3 4 5 6 7 8 9 10 11 12 13 14 15 16 17 18 19 20 21 22 23 24 25 26 27
000
ASUS44 KMOB 010513
RWRMOB
REGIONAL WEATHER ROUNDUP
NATIONAL WEATHER SERVICE MOBILE AL
1200 AM CDT SUN AUG 01 2021

NOTE: "FAIR" INDICATES FEW OR NO CLOUDS BELOW 12,000 FEET WITH NO
      SIGNIFICANT WEATHER AND/OR OBSTRUCTIONS TO VISIBILITY.

  * THESE STATIONS ARE PART OF THE UNIVERSITY OF SOUTH ALABAMA
    MESONET AND ARE NOT UNDER NWS OR FAA QUALITY CONTROL.

ALZ061>064-010600-
COASTAL ALABAMA

CITY           SKY/WX    TMP DP  RH WIND       PRES   REMARKS
MOBILE REG APT CLEAR     79  75  87 SW6       29.99F
BROOKLEY FIELD PTCLDY    82  75  79 W6        29.99S
USA CAMPUS*    NOT AVBL
DOG RIVER*     NOT AVBL


CITY           SKY/WX    TMP DP  RH WIND       PRES   REMARKS
GULF SHORES    MOCLDY    78  74  89 E9G17     30.01S THUNDER

$$

ALZ051>060-010600-
INTERIOR SOUTHWEST AND SOUTH CENTRAL ALABAMA

CITY           SKY/WX    TMP DP  RH WIND       PRES   REMARKS
GREENVILLE     MOCLDY    77  72  84 S5        29.99S
EVERGREEN      MOCLDY    77  72  84 S3        29.99F
ATMORE*          N/A    N/A N/A N/A CALM      30.01F
ANDALUSIA/OPP  CLOUDY    79  71  76 CALM      29.99F
ANDALUSIA*       N/A     75  72  88 S3        29.99F
FLORALA APT    CLOUDY    75  71  87 SW5       29.99F
FLORALA*       NOT AVBL

$$

FLZ001>006-010600-
WESTERN FLORIDA PANHANDLE

CITY           SKY/WX    TMP DP  RH WIND       PRES   REMARKS
PENSACOLA      MOCLDY    78  74  87 S3        29.99F
NAS PENSACOLA  MOCLDY    75  72  90 S16       29.99F THUNDER
MILTON         NOT AVBL
WHTNG S FIELD  CLOUDY    74  73  97 W3        29.99F


CITY           SKY/WX    TMP DP  RH WIND       PRES   REMARKS
JAY*           NOT AVBL
DUKE FIELD     CLOUDY    73  72  94 CALM      29.96F
CRESTVIEW      LGT RAIN  76  73  91 NW3       29.99F
VALPARAISO     CLOUDY    76  72  87 CALM      29.96F
DESTIN         CLOUDY    79  75  87 CALM      29.97F

$$

MSZ076-079-010600-
INTERIOR SOUTHEAST MISSISSIPPI

CITY           SKY/WX    TMP DP  RH WIND       PRES   REMARKS
LEAKESVILLE*   NOT AVBL
AGRICOLA*      NOT AVBL

$$

MARINE OBSERVATIONS

STATION/POSITION TIME  TEMP    WIND        PRES    WAVE
                       AIR SEA DIR/SP/G            HT/PER
                 (UTC) (F)     (DEG/KT/KT) (MB)    (FT/S)
PETIT BOIS ISLND 0430   87     260/ 10/ 11 1015.9F
E DAUPHIN ISLAND 0400   85     250/  7/ 11 1015.4F
USCG MOBILE BAY  0430   83 88  260/  5/  7 1014.6S
STATE DOCKS      0430   84 87              1015.5R
WEEKS BAY        0345   82                 1016.0S
FORT MORGAN      0430   86     270/ 14/ 15 1015.6R
12 S ORANGE BCH  0450   81 89  110/ 21/ 27   N/A     3/ 4
PENSACOLA BAY    0430   80 87  170/  9/ 12 1016.0F
64 S DAUPHIN ISL 0450   85 86  240/  8/ 10 1016.4F   1/ 3

$$

SELECTED LOCATIONS ACROSS THE REGION

CITY           SKY/WX    TMP DP  RH WIND       PRES   REMARKS
NEW ORLEANS    PTCLDY    79  75  87 CALM      30.00S
GULFPORT       CLEAR     78  76  93 CALM      29.99S
PASCAGOULA AP  CLEAR     77  76  96 CALM      29.99S
PASCAGOULA*    NOT AVBL
HATTIESBURG    CLEAR     81  74  79 SW6       29.98S
LAUREL         CLEAR     80  79  96 CALM      30.00R
MERIDIAN       CLEAR     79  77  94 CALM      29.99R
JACKSON        CLEAR     79  75  87 CALM      29.99R
MONTGOMERY     MOCLDY    75  71  87 SW3       29.99S
TROY           CLOUDY    77  71  82 S3        30.01R
ASHFORD*         N/A     75  72  88 S3        29.99F
DOTHAN         CLOUDY    76  74  93 CALM      30.02R
PANAMA CITY    MOCLDY    75  73  93 SW7       29.97F

$$




USA.gov is the U.S. government's official web portal to all federal, state and local government web resources and services.